VTDRM VOBL-VOHS

Flight info

Callsign VTDRM
Flight time 0h 43m
Altitude 39000
Route LATID8A LATID Q22 SAKRO SARKA6
Aircraft C700/M-SBDGHM1RWXY/LB2

Departure

Time 2026-04-24 01:43
Airport Kempegowda International Airport Bengaluru (VOBL)

Arrival

Time 2026-04-24 02:27
Airport Rajiv Gandhi International Airport (VOHS)
Time Latitude Longitude Altitude Speed Heading
2026-04-24 01:22 13.20165 77.70286 2963 ft 0 kts 180°
2026-04-24 01:36 13.20175 77.70286 2956 ft 2 kts 180°
2026-04-24 01:36 13.20187 77.70286 2949 ft 2 kts 180°
2026-04-24 01:36 13.20198 77.70286 2952 ft 2 kts 180°
2026-04-24 01:36 13.20210 77.70286 2960 ft 2 kts 180°
2026-04-24 01:37 13.20222 77.70286 2961 ft 2 kts 180°
2026-04-24 01:37 13.20233 77.70288 2956 ft 2 kts 215°
2026-04-24 01:37 13.20240 77.70298 2953 ft 2 kts 261°
2026-04-24 01:37 13.20240 77.70300 2955 ft 0 kts 272°
2026-04-24 01:38 13.20241 77.70299 2954 ft 0 kts 289°
2026-04-24 01:38 13.20256 77.70269 2961 ft 9 kts 287°
2026-04-24 01:38 13.20263 77.70182 2963 ft 14 kts 267°
2026-04-24 01:38 13.20266 77.70072 2963 ft 17 kts 272°
2026-04-24 01:39 13.20267 77.69945 2963 ft 19 kts 269°
2026-04-24 01:39 13.20269 77.69804 2963 ft 21 kts 271°
2026-04-24 01:39 13.20270 77.69647 2958 ft 23 kts 270°
2026-04-24 01:39 13.20272 77.69478 2963 ft 25 kts 270°
2026-04-24 01:40 13.20294 77.69347 2952 ft 17 kts 321°
2026-04-24 01:40 13.20414 77.69336 2960 ft 19 kts
2026-04-24 01:40 13.20534 77.69305 2962 ft 17 kts 294°
2026-04-24 01:40 13.20538 77.69180 2962 ft 19 kts 270°
2026-04-24 01:41 13.20540 77.69037 2961 ft 22 kts 271°
2026-04-24 01:41 13.20542 77.68883 2962 ft 12 kts 272°
2026-04-24 01:41 13.20542 77.68876 2962 ft 0 kts 274°
2026-04-24 01:41 13.20543 77.68837 2963 ft 11 kts 274°
2026-04-24 01:42 13.20546 77.68729 2965 ft 20 kts 265°
2026-04-24 01:42 13.20588 77.68614 2965 ft 12 kts 358°
2026-04-24 01:42 13.20685 77.68622 2963 ft 16 kts 11°
2026-04-24 01:42 13.20715 77.68701 2963 ft 13 kts 91°
2026-04-24 01:43 13.20713 77.69017 2963 ft 88 kts 90°
2026-04-24 01:43 13.20708 77.69945 2967 ft 168 kts 89°
2026-04-24 01:43 13.20704 77.71302 3241 ft 211 kts 90°
2026-04-24 01:43 13.20688 77.72867 4208 ft 224 kts 92°
2026-04-24 01:44 13.20689 77.74481 5585 ft 228 kts 90°
2026-04-24 01:44 13.20700 77.76124 6948 ft 239 kts 90°
2026-04-24 01:44 13.21093 77.77861 8008 ft 267 kts 60°
2026-04-24 01:44 13.22535 77.79077 9508 ft 283 kts 27°
2026-04-24 01:45 13.24537 77.79400 10568 ft 306 kts
2026-04-24 01:45 13.26706 77.79219 11881 ft 313 kts 358°
2026-04-24 01:45 13.28883 77.79074 13526 ft 316 kts
2026-04-24 01:45 13.31094 77.79200 14794 ft 323 kts
2026-04-24 01:46 13.33358 77.79599 15900 ft 336 kts 12°
2026-04-24 01:46 13.35703 77.80010 17007 ft 348 kts
2026-04-24 01:46 13.38149 77.80303 18096 ft 360 kts
2026-04-24 01:46 13.40673 77.80590 19079 ft 369 kts
2026-04-24 01:47 13.43241 77.80943 20122 ft 376 kts
2026-04-24 01:47 13.45857 77.81312 21125 ft 383 kts
2026-04-24 01:47 13.48526 77.81663 22142 ft 390 kts
2026-04-24 01:47 13.51245 77.82014 23136 ft 398 kts
2026-04-24 01:48 13.54013 77.82383 24012 ft 405 kts
2026-04-24 01:48 13.56834 77.82764 24783 ft 413 kts
2026-04-24 01:48 13.59707 77.83145 25555 ft 420 kts
2026-04-24 01:48 13.62634 77.83531 26327 ft 428 kts
2026-04-24 01:49 13.65611 77.83928 27089 ft 435 kts
2026-04-24 01:49 13.68640 77.84333 27831 ft 443 kts
2026-04-24 01:49 13.71720 77.84743 28553 ft 450 kts
2026-04-24 01:49 13.74854 77.85160 29255 ft 457 kts
2026-04-24 01:50 13.78028 77.85582 29952 ft 465 kts
2026-04-24 01:50 13.81265 77.86014 30574 ft 471 kts
2026-04-24 01:50 13.84537 77.86451 31174 ft 478 kts
2026-04-24 01:50 13.87852 77.86893 31767 ft 483 kts
2026-04-24 01:51 13.91209 77.87340 32334 ft 489 kts
2026-04-24 01:51 13.94602 77.87792 32858 ft 495 kts
2026-04-24 01:51 13.95716 77.87941 33035 ft 497 kts
2026-04-24 01:52 13.95876 77.87962 33061 ft 497 kts
2026-04-24 01:52 13.98193 77.88273 33577 ft 496 kts
2026-04-24 01:53 14.01617 77.88732 34249 ft 497 kts
2026-04-24 01:53 14.05037 77.89188 34964 ft 494 kts
2026-04-24 01:53 14.08434 77.89642 35744 ft 491 kts
2026-04-24 01:53 14.11809 77.90093 36513 ft 488 kts
2026-04-24 01:54 14.15055 77.90527 37194 ft 486 kts
2026-04-24 01:54 14.17707 77.90881 37723 ft 484 kts
2026-04-24 01:54 14.21039 77.91327 38359 ft 482 kts
2026-04-24 01:54 14.24344 77.91770 38856 ft 481 kts
2026-04-24 01:55 14.27702 77.92216 38934 ft 490 kts
2026-04-24 01:55 14.34189 77.93083 38937 ft 509 kts
2026-04-24 01:56 14.41340 77.94044 38943 ft 523 kts
2026-04-24 01:56 14.48575 77.95040 38935 ft 526 kts
2026-04-24 01:57 14.55335 77.96199 38936 ft 527 kts
2026-04-24 01:57 14.62581 77.97406 38933 ft 528 kts
2026-04-24 01:58 14.69835 77.98645 38925 ft 528 kts
2026-04-24 01:58 14.75434 77.99587 38925 ft 528 kts
2026-04-24 01:59 14.82690 78.00817 38928 ft 528 kts
2026-04-24 01:59 14.89946 78.02046 38929 ft 529 kts
2026-04-24 02:00 14.96515 78.03160 38926 ft 529 kts
2026-04-24 02:00 15.03788 78.04395 38928 ft 530 kts
2026-04-24 02:01 15.11044 78.05626 38925 ft 530 kts
2026-04-24 02:01 15.17362 78.06700 38920 ft 530 kts
2026-04-24 02:02 15.24738 78.07953 38923 ft 531 kts
2026-04-24 02:02 15.31984 78.09187 38924 ft 531 kts
2026-04-24 02:03 15.37391 78.10106 38920 ft 531 kts
2026-04-24 02:03 15.44700 78.11284 38921 ft 531 kts
2026-04-24 02:04 15.52003 78.12482 38920 ft 531 kts
2026-04-24 02:04 15.59306 78.13674 38921 ft 531 kts
2026-04-24 02:05 15.65131 78.14624 38919 ft 532 kts
2026-04-24 02:06 15.65994 78.14766 38916 ft 532 kts
2026-04-24 02:07 15.69647 78.15367 38809 ft 531 kts
2026-04-24 02:07 15.73282 78.15961 38116 ft 526 kts
2026-04-24 02:07 15.76862 78.16547 37431 ft 515 kts
2026-04-24 02:07 15.80373 78.17123 36758 ft 507 kts
2026-04-24 02:08 15.83843 78.17690 36099 ft 503 kts
2026-04-24 02:08 15.87301 78.18254 35432 ft 504 kts
2026-04-24 02:08 15.90737 78.18815 34776 ft 510 kts
2026-04-24 02:08 15.94258 78.19394 34102 ft 514 kts
2026-04-24 02:09 15.97801 78.19977 33382 ft 516 kts
2026-04-24 02:09 16.01343 78.20559 32701 ft 515 kts
2026-04-24 02:09 16.04885 78.21138 32025 ft 515 kts
2026-04-24 02:09 16.08425 78.21719 31343 ft 516 kts
2026-04-24 02:10 16.11974 78.22303 30663 ft 516 kts
2026-04-24 02:10 16.15520 78.22886 29977 ft 516 kts
2026-04-24 02:10 16.19051 78.23467 29255 ft 512 kts
2026-04-24 02:10 16.22546 78.24042 28586 ft 505 kts
2026-04-24 02:11 16.25994 78.24608 27928 ft 498 kts
2026-04-24 02:11 16.29397 78.25162 27271 ft 491 kts
2026-04-24 02:11 16.32750 78.25713 26629 ft 484 kts
2026-04-24 02:11 16.36055 78.26256 25993 ft 477 kts
2026-04-24 02:12 16.39309 78.26789 25365 ft 470 kts
2026-04-24 02:12 16.42517 78.27314 24759 ft 464 kts
2026-04-24 02:12 16.45678 78.27834 24146 ft 457 kts
2026-04-24 02:12 16.48798 78.28346 23545 ft 451 kts
2026-04-24 02:13 16.51870 78.28851 22906 ft 443 kts
2026-04-24 02:13 16.54894 78.29347 22320 ft 437 kts
2026-04-24 02:13 16.57883 78.29839 21747 ft 432 kts
2026-04-24 02:13 16.60840 78.30327 21179 ft 427 kts
2026-04-24 02:14 16.63760 78.30810 20617 ft 423 kts
2026-04-24 02:14 16.66647 78.31287 20067 ft 418 kts
2026-04-24 02:14 16.69505 78.31759 19515 ft 414 kts
2026-04-24 02:14 16.72331 78.32226 18974 ft 409 kts
2026-04-24 02:15 16.75124 78.32689 18440 ft 404 kts
2026-04-24 02:15 16.77887 78.33145 17874 ft 399 kts
2026-04-24 02:15 16.80608 78.33594 17342 ft 393 kts
2026-04-24 02:15 16.83290 78.34039 16824 ft 388 kts
2026-04-24 02:16 16.85942 78.34478 16315 ft 383 kts
2026-04-24 02:16 16.88562 78.34910 15811 ft 379 kts
2026-04-24 02:16 16.91150 78.35340 15318 ft 375 kts 10°
2026-04-24 02:16 16.93677 78.35759 14831 ft 370 kts 10°
2026-04-24 02:17 16.96205 78.36178 14350 ft 365 kts 10°
2026-04-24 02:17 16.98293 78.36520 13950 ft 361 kts 11°
2026-04-24 02:17 17.00757 78.36929 13455 ft 352 kts 11°
2026-04-24 02:18 17.03105 78.37319 13024 ft 332 kts 11°
2026-04-24 02:18 17.05319 78.37687 12658 ft 313 kts 11°
2026-04-24 02:18 17.07370 78.38249 12253 ft 298 kts 22°
2026-04-24 02:18 17.09200 78.39178 11891 ft 289 kts 32°
2026-04-24 02:19 17.10808 78.40422 11522 ft 287 kts 41°
2026-04-24 02:19 17.12175 78.41953 11067 ft 291 kts 52°
2026-04-24 02:19 17.13260 78.43741 10593 ft 292 kts 62°
2026-04-24 02:19 17.14008 78.45709 10128 ft 292 kts 72°
2026-04-24 02:20 17.14397 78.47794 9651 ft 293 kts 83°
2026-04-24 02:20 17.14456 78.49228 9309 ft 292 kts 88°
2026-04-24 02:20 17.14478 78.51315 8819 ft 289 kts 88°
2026-04-24 02:20 17.14536 78.53395 8334 ft 284 kts 88°
2026-04-24 02:21 17.14580 78.55443 7851 ft 280 kts 88°
2026-04-24 02:21 17.14613 78.57466 7375 ft 276 kts 88°
2026-04-24 02:21 17.14652 78.59463 6906 ft 274 kts 88°
2026-04-24 02:21 17.14691 78.61446 6445 ft 272 kts 89°
2026-04-24 02:22 17.14856 78.63403 5954 ft 271 kts 74°
2026-04-24 02:22 17.15813 78.65069 5453 ft 270 kts 44°
2026-04-24 02:22 17.17442 78.66001 4962 ft 269 kts 14°
2026-04-24 02:22 17.19294 78.65962 4475 ft 269 kts 344°
2026-04-24 02:23 17.20874 78.64971 3983 ft 267 kts 313°
2026-04-24 02:23 17.21851 78.63342 3519 ft 265 kts 293°
2026-04-24 02:23 17.22541 78.61619 3463 ft 247 kts 291°
2026-04-24 02:23 17.22946 78.59952 3440 ft 231 kts 269°
2026-04-24 02:24 17.22772 78.58321 3450 ft 224 kts 263°
2026-04-24 02:24 17.22757 78.56691 3450 ft 225 kts 275°
2026-04-24 02:24 17.23019 78.55081 3455 ft 222 kts 275°
2026-04-24 02:24 17.23021 78.53512 3452 ft 210 kts 267°
2026-04-24 02:25 17.22994 78.52013 3288 ft 207 kts 269°
2026-04-24 02:25 17.22993 78.50525 3034 ft 196 kts 269°
2026-04-24 02:25 17.22959 78.49223 2799 ft 175 kts 268°
2026-04-24 02:25 17.22959 78.48014 2586 ft 160 kts 270°
2026-04-24 02:26 17.22937 78.46903 2387 ft 145 kts 267°
2026-04-24 02:26 17.22917 78.45886 2169 ft 136 kts 269°
2026-04-24 02:26 17.22927 78.44937 2082 ft 124 kts 269°
2026-04-24 02:26 17.22910 78.44090 1998 ft 105 kts 267°
2026-04-24 02:27 17.22882 78.43460 1992 ft 68 kts 268°
2026-04-24 02:27 17.22898 78.43088 1991 ft 34 kts 291°
2026-04-24 02:27 17.22990 78.42906 1988 ft 29 kts 300°
2026-04-24 02:27 17.23091 78.42778 1990 ft 15 kts 297°
2026-04-24 02:28 17.23173 78.42730 1991 ft 16 kts
2026-04-24 02:28 17.23231 78.42656 1991 ft 17 kts 268°
2026-04-24 02:28 17.23217 78.42528 1992 ft 19 kts 269°
2026-04-24 02:28 17.23227 78.42388 1995 ft 20 kts 275°
2026-04-24 02:29 17.23227 78.42230 1992 ft 24 kts 268°
2026-04-24 02:29 17.23241 78.42073 1989 ft 16 kts 332°
2026-04-24 02:29 17.23345 78.42068 1992 ft 9 kts 356°